AAUSAT3

Last updated on Tue Mar 29 2016 17:38:05 GMT+0000 (Coordinated Universal Time)

1 39087U 13009B 16089.50607102 .00000209 00000-0 88136-4 0 9996 2 39087 98.5880 291.7639 0012394 174.8979 185.2336 14.35325091161726
UTC large
Height (km)
Speed (km/s)
/
Latitude / Longitude
Inclination (degrees)
Orbital Period (minutes)
Azimuth
Elevation
Range (km)
Doppler Factor

Next 0 passes for location: London (51.5072 / 0.1276)

Sorry there are no passes over London.